Orange8 — JL6278 — position and weather

sailwx.info

Track history (hours):
 
Tides and Currents Weather Stations Pressure Air Temp Water Temp Dewpoint Dewpoint Depression Visibility Wind Speed Wind Dir Waves Ship Positions

Orange8

Last reported at 2014-Jul-29 14:33 UTC. Time now 2014-Jul-29 18:52 UTC.
Position N 34°37' E 134°58'.

Length 164 m; draft 5 m.

Type: Passenger vessel. MMSI: 431501603.

Date/timePositionNaut miles runAvg speedWind from/ knotsBaromVisibWave heightAir tempDewpointWater temp
2014-Jul-29 14:33N 34°37' E 134°58'1818.1
2014-Jul-29 13:33N 34°37' E 135°20'5 4.5
2014-Jul-29 12:29N 34°37' E 135°26'0 0.0
2014-Jul-29 11:29N 34°37' E 135°26'0 0.0
2014-Jul-29 10:29N 34°37' E 135°26'0 0.0
2014-Jul-29 09:29N 34°37' E 135°26'0 0.0
2014-Jul-29 08:29N 34°37' E 135°26'0 0.0
2014-Jul-29 07:29N 34°37' E 135°26'0 0.0
2014-Jul-29 06:23N 34°37' E 135°26'0 0.0
2014-Jul-29 05:29N 34°37' E 135°26'0 0.0
2014-Jul-29 04:17N 34°37' E 135°26'0 0.0
2014-Jul-29 03:23N 34°37' E 135°26'0 0.0
2014-Jul-29 02:23N 34°37' E 135°26'0 0.0
2014-Jul-29 01:29N 34°37' E 135°26'0 0.0
2014-Jul-29 00:29N 34°37' E 135°26'0 0.0
2014-Jul-28 23:29N 34°37' E 135°26'0 0.0
2014-Jul-28 22:23N 34°37' E 135°26'0 0.0
2014-Jul-28 21:29N 34°37' E 135°26'7 8.1
2014-Jul-28 20:33N 34°34' E 135°18'1817.4
2014-Jul-28 19:33N 34°36' E 134°57'1 0.0
2014-Jul-27 14:33N 34°36' E 134°56'1918.7
2014-Jul-27 13:33N 34°36' E 135°19'6 5.9
2014-Jul-27 12:33N 34°37' E 135°26'0 0.0
2014-Jul-27 11:27N 34°37' E 135°26'0 0.0
2014-Jul-27 10:33N 34°37' E 135°26'0 0.0
2014-Jul-27 09:33N 34°37' E 135°26'0 0.0
2014-Jul-27 08:33N 34°37' E 135°26'0 0.0
2014-Jul-27 07:33N 34°37' E 135°26'0 0.0
2014-Jul-27 06:27N 34°37' E 135°26'0 0.0
2014-Jul-27 05:33N 34°37' E 135°26'0 0.0
2014-Jul-27 04:27N 34°37' E 135°26'0 0.0
2014-Jul-27 03:33N 34°37' E 135°26'0 0.0
2014-Jul-27 02:33N 34°37' E 135°26'0 0.0
2014-Jul-27 01:33N 34°37' E 135°26'0 0.0
2014-Jul-27 00:33N 34°37' E 135°26'0 0.0
2014-Jul-26 23:33N 34°37' E 135°26'0 0.0
2014-Jul-26 22:33N 34°37' E 135°26'0 0.0
2014-Jul-26 21:21N 34°37' E 135°26'5 6.9
2014-Jul-26 20:33N 34°36' E 135°19'1818.0
2014-Jul-26 19:33N 34°37' E 134°58'1 0.0
2014-Jul-25 14:33N 34°37' E 134°57'1818.0
2014-Jul-25 13:33N 34°36' E 135°19'6 5.7
2014-Jul-25 12:31N 34°37' E 135°26'0 0.0
2014-Jul-25 11:31N 34°37' E 135°26'0 0.0
2014-Jul-25 10:31N 34°37' E 135°26'0 0.0
2014-Jul-25 09:31N 34°37' E 135°26'0 0.0
2014-Jul-25 08:19N 34°37' E 135°26'0 0.0
2014-Jul-25 07:31N 34°37' E 135°26'0 0.0
2014-Jul-25 06:31N 34°37' E 135°26'0 0.0
2014-Jul-25 05:31N 34°37' E 135°26'0 0.0
2014-Jul-25 04:31N 34°37' E 135°26'0 0.0
2014-Jul-25 03:13N 34°37' E 135°26'0 0.0
2014-Jul-25 02:31N 34°37' E 135°26'0 0.0
2014-Jul-25 01:31N 34°37' E 135°26'0 0.0
2014-Jul-25 00:31N 34°37' E 135°26'0 0.0
2014-Jul-24 23:31N 34°37' E 135°26'0 0.0
2014-Jul-24 22:31N 34°37' E 135°26'0 0.0
2014-Jul-24 21:31N 34°37' E 135°26'6 6.5
2014-Jul-24 20:33N 34°36' E 135°18'1817.9
2014-Jul-24 19:33N 34°36' E 134°57'2 0.1
2014-Jul-23 14:33N 34°38' E 134°58'1818.0
2014-Jul-23 13:33N 34°37' E 135°20'5 4.4
2014-Jul-23 12:28N 34°37' E 135°26'0 0.0
2014-Jul-23 11:22N 34°37' E 135°26'0 0.0
2014-Jul-23 10:28N 34°37' E 135°26'0 0.0
2014-Jul-23 09:28N 34°37' E 135°26'0 0.0
2014-Jul-23 08:16N 34°37' E 135°26'0 0.0
2014-Jul-23 07:22N 34°37' E 135°26'0 0.0
2014-Jul-23 06:28N 34°37' E 135°26'0 0.0
2014-Jul-23 05:22N 34°37' E 135°26'0 0.0
2014-Jul-23 04:28N 34°37' E 135°26'0 0.0
2014-Jul-23 03:22N 34°37' E 135°26'0 0.0
2014-Jul-23 02:28N 34°37' E 135°26'0 0.0
2014-Jul-23 01:28N 34°37' E 135°26'0 0.0
2014-Jul-23 00:28N 34°37' E 135°26'0 0.0
2014-Jul-22 23:28N 34°37' E 135°26'0 0.0
2014-Jul-22 22:28N 34°37' E 135°26'0 0.0
2014-Jul-22 21:28N 34°37' E 135°26'5 5.6
2014-Jul-22 20:33N 34°36' E 135°20'1817.9
2014-Jul-22 19:33N 34°37' E 134°58'0 0.0
2014-Jul-21 14:31N 34°37' E 134°58'1717.7
2014-Jul-21 13:34N 34°36' E 135°19'6 5.6
2014-Jul-21 12:30N 34°37' E 135°26'0 0.0
2014-Jul-21 11:30N 34°37' E 135°26'0 0.0
2014-Jul-21 10:24N 34°37' E 135°26'0 0.0
2014-Jul-21 09:30N 34°37' E 135°26'0 0.0
2014-Jul-21 08:24N 34°37' E 135°26'0 0.0
2014-Jul-21 07:30N 34°37' E 135°26'0 0.0
2014-Jul-21 06:30N 34°37' E 135°26'0 0.0
2014-Jul-21 05:24N 34°37' E 135°26'0 0.0
2014-Jul-21 04:24N 34°37' E 135°26'0 0.0
2014-Jul-21 03:18N 34°37' E 135°26'0 0.0
2014-Jul-21 02:18N 34°37' E 135°26'0 0.0
2014-Jul-21 01:30N 34°37' E 135°26'0 0.0
2014-Jul-21 00:24N 34°37' E 135°26'0 0.0
2014-Jul-20 23:30N 34°37' E 135°26'0 0.0
2014-Jul-20 22:30N 34°37' E 135°26'0 0.0
2014-Jul-20 21:30N 34°37' E 135°26'5 5.2
2014-Jul-20 20:33N 34°36' E 135°20'1817.9
2014-Jul-20 19:33N 34°36' E 134°58'  
Track history (hours):
 
Tides and Currents Weather Stations Pressure Air Temp Water Temp Dewpoint Dewpoint Depression Visibility Wind Speed Wind Dir Waves Ship Positions

Orange8

Last reported at 2014-Jul-29 14:33 UTC. Time now 2014-Jul-29 18:52 UTC.
Position N 34°37' E 134°58'.

Length 164 m; draft 5 m.

Type: Passenger vessel. MMSI: 431501603.

Date/timePositionNaut miles runAvg speedWind from/ knotsBaromVisibWave heightAir tempDewpointWater temp
2014-Jul-29 14:33N 34°37' E 134°58'1818.1
2014-Jul-29 13:33N 34°37' E 135°20'5 4.5
2014-Jul-29 12:29N 34°37' E 135°26'0 0.0
2014-Jul-29 11:29N 34°37' E 135°26'0 0.0
2014-Jul-29 10:29N 34°37' E 135°26'0 0.0
2014-Jul-29 09:29N 34°37' E 135°26'0 0.0
2014-Jul-29 08:29N 34°37' E 135°26'0 0.0
2014-Jul-29 07:29N 34°37' E 135°26'0 0.0
2014-Jul-29 06:23N 34°37' E 135°26'0 0.0
2014-Jul-29 05:29N 34°37' E 135°26'0 0.0
2014-Jul-29 04:17N 34°37' E 135°26'0 0.0
2014-Jul-29 03:23N 34°37' E 135°26'0 0.0
2014-Jul-29 02:23N 34°37' E 135°26'0 0.0
2014-Jul-29 01:29N 34°37' E 135°26'0 0.0
2014-Jul-29 00:29N 34°37' E 135°26'0 0.0
2014-Jul-28 23:29N 34°37' E 135°26'0 0.0
2014-Jul-28 22:23N 34°37' E 135°26'0 0.0
2014-Jul-28 21:29N 34°37' E 135°26'7 8.1
2014-Jul-28 20:33N 34°34' E 135°18'1817.4
2014-Jul-28 19:33N 34°36' E 134°57'1 0.0
2014-Jul-27 14:33N 34°36' E 134°56'1918.7
2014-Jul-27 13:33N 34°36' E 135°19'6 5.9
2014-Jul-27 12:33N 34°37' E 135°26'0 0.0
2014-Jul-27 11:27N 34°37' E 135°26'0 0.0
2014-Jul-27 10:33N 34°37' E 135°26'0 0.0
2014-Jul-27 09:33N 34°37' E 135°26'0 0.0
2014-Jul-27 08:33N 34°37' E 135°26'0 0.0
2014-Jul-27 07:33N 34°37' E 135°26'0 0.0
2014-Jul-27 06:27N 34°37' E 135°26'0 0.0
2014-Jul-27 05:33N 34°37' E 135°26'0 0.0
2014-Jul-27 04:27N 34°37' E 135°26'0 0.0
2014-Jul-27 03:33N 34°37' E 135°26'0 0.0
2014-Jul-27 02:33N 34°37' E 135°26'0 0.0
2014-Jul-27 01:33N 34°37' E 135°26'0 0.0
2014-Jul-27 00:33N 34°37' E 135°26'0 0.0
2014-Jul-26 23:33N 34°37' E 135°26'0 0.0
2014-Jul-26 22:33N 34°37' E 135°26'0 0.0
2014-Jul-26 21:21N 34°37' E 135°26'5 6.9
2014-Jul-26 20:33N 34°36' E 135°19'1818.0
2014-Jul-26 19:33N 34°37' E 134°58'1 0.0
2014-Jul-25 14:33N 34°37' E 134°57'1818.0
2014-Jul-25 13:33N 34°36' E 135°19'6 5.7
2014-Jul-25 12:31N 34°37' E 135°26'0 0.0
2014-Jul-25 11:31N 34°37' E 135°26'0 0.0
2014-Jul-25 10:31N 34°37' E 135°26'0 0.0
2014-Jul-25 09:31N 34°37' E 135°26'0 0.0
2014-Jul-25 08:19N 34°37' E 135°26'0 0.0
2014-Jul-25 07:31N 34°37' E 135°26'0 0.0
2014-Jul-25 06:31N 34°37' E 135°26'0 0.0
2014-Jul-25 05:31N 34°37' E 135°26'0 0.0
2014-Jul-25 04:31N 34°37' E 135°26'0 0.0
2014-Jul-25 03:13N 34°37' E 135°26'0 0.0
2014-Jul-25 02:31N 34°37' E 135°26'0 0.0
2014-Jul-25 01:31N 34°37' E 135°26'0 0.0
2014-Jul-25 00:31N 34°37' E 135°26'0 0.0
2014-Jul-24 23:31N 34°37' E 135°26'0 0.0
2014-Jul-24 22:31N 34°37' E 135°26'0 0.0
2014-Jul-24 21:31N 34°37' E 135°26'6 6.5
2014-Jul-24 20:33N 34°36' E 135°18'1817.9
2014-Jul-24 19:33N 34°36' E 134°57'2 0.1
2014-Jul-23 14:33N 34°38' E 134°58'1818.0
2014-Jul-23 13:33N 34°37' E 135°20'5 4.4
2014-Jul-23 12:28N 34°37' E 135°26'0 0.0
2014-Jul-23 11:22N 34°37' E 135°26'0 0.0
2014-Jul-23 10:28N 34°37' E 135°26'0 0.0
2014-Jul-23 09:28N 34°37' E 135°26'0 0.0
2014-Jul-23 08:16N 34°37' E 135°26'0 0.0
2014-Jul-23 07:22N 34°37' E 135°26'0 0.0
2014-Jul-23 06:28N 34°37' E 135°26'0 0.0
2014-Jul-23 05:22N 34°37' E 135°26'0 0.0
2014-Jul-23 04:28N 34°37' E 135°26'0 0.0
2014-Jul-23 03:22N 34°37' E 135°26'0 0.0
2014-Jul-23 02:28N 34°37' E 135°26'0 0.0
2014-Jul-23 01:28N 34°37' E 135°26'0 0.0
2014-Jul-23 00:28N 34°37' E 135°26'0 0.0
2014-Jul-22 23:28N 34°37' E 135°26'0 0.0
2014-Jul-22 22:28N 34°37' E 135°26'0 0.0
2014-Jul-22 21:28N 34°37' E 135°26'5 5.6
2014-Jul-22 20:33N 34°36' E 135°20'1817.9
2014-Jul-22 19:33N 34°37' E 134°58'0 0.0
2014-Jul-21 14:31N 34°37' E 134°58'1717.7
2014-Jul-21 13:34N 34°36' E 135°19'6 5.6
2014-Jul-21 12:30N 34°37' E 135°26'0 0.0
2014-Jul-21 11:30N 34°37' E 135°26'0 0.0
2014-Jul-21 10:24N 34°37' E 135°26'0 0.0
2014-Jul-21 09:30N 34°37' E 135°26'0 0.0
2014-Jul-21 08:24N 34°37' E 135°26'0 0.0
2014-Jul-21 07:30N 34°37' E 135°26'0 0.0
2014-Jul-21 06:30N 34°37' E 135°26'0 0.0
2014-Jul-21 05:24N 34°37' E 135°26'0 0.0
2014-Jul-21 04:24N 34°37' E 135°26'0 0.0
2014-Jul-21 03:18N 34°37' E 135°26'0 0.0
2014-Jul-21 02:18N 34°37' E 135°26'0 0.0
2014-Jul-21 01:30N 34°37' E 135°26'0 0.0
2014-Jul-21 00:24N 34°37' E 135°26'0 0.0
2014-Jul-20 23:30N 34°37' E 135°26'0 0.0
2014-Jul-20 22:30N 34°37' E 135°26'0 0.0
2014-Jul-20 21:30N 34°37' E 135°26'5 5.2
2014-Jul-20 20:33N 34°36' E 135°20'1817.9
2014-Jul-20 19:33N 34°36' E 134°58'  

Dump ship's entire track history